| time (UTC) | temp F | wind direction | speed MPH | gust MPH | rain 1hr in | rain 24hr in | rain mn in | humidity % | barometer mb |
| 20260504000331 | 54 | 90 | 0.0 | 0.0 | 0.00 | 0.12 | 0.00 | 72 | 960.9 |
| 20260503233330 | 55 | 68 | 0.0 | 0.0 | 0.00 | 0.12 | 0.00 | 70 | 960.7 |
| 20260503230333 | 56 | 68 | 0.0 | 2.0 | 0.00 | 0.12 | 0.00 | 67 | 960.9 |
| 20260503223330 | 57 | 338 | 0.0 | 0.0 | 0.00 | 0.12 | 0.00 | 66 | 960.9 |
| 20260503220330 | 57 | 338 | 0.0 | 0.0 | 0.00 | 0.12 | 0.00 | 67 | 961.0 |
| 20260503213330 | 57 | 338 | 0.0 | 0.0 | 0.00 | 0.12 | 0.12 | 65 | 961.1 |
| 20260503210330 | 57 | 338 | 0.0 | 0.0 | 0.00 | 0.12 | 0.12 | 65 | 960.9 |
| 20260503203330 | 57 | 65 | 1.0 | 2.0 | 0.00 | 0.12 | 0.12 | 63 | 961.0 |
| 20260503200331 | 58 | 68 | 0.0 | 0.0 | 0.00 | 0.12 | 0.12 | 60 | 961.0 |
| 20260503193332 | 59 | 248 | 0.0 | 2.0 | 0.00 | 0.12 | 0.12 | 56 | 961.0 |
| 20260503190331 | 61 | 248 | 1.0 | 2.0 | 0.00 | 0.12 | 0.12 | 53 | 961.0 |
| 20260503183330 | 62 | 262 | 3.0 | 6.0 | 0.00 | 0.12 | 0.12 | 49 | 960.9 |
| 20260503180330 | 63 | 237 | 2.0 | 3.0 | 0.00 | 0.12 | 0.12 | 48 | 960.8 |
| 20260503173330 | 64 | 248 | 2.0 | 3.0 | 0.00 | 0.12 | 0.12 | 46 | 961.0 |
| 20260503170329 | 65 | 253 | 5.0 | 9.0 | 0.00 | 0.12 | 0.12 | 44 | 960.9 |
| 20260503150330 | 73 | 270 | 7.0 | 15.0 | 0.00 | 0.12 | 0.12 | 40 | 959.6 |
| 20260503130331 | 72 | 248 | 6.0 | 9.0 | 0.00 | 0.12 | 0.12 | 42 | 960.2 |
| 20260503110330 | 70 | 68 | 0.0 | 0.0 | 0.00 | 0.12 | 0.12 | 62 | 960.8 |
| 20260503090329 | 62 | 68 | 2.0 | 5.0 | 0.00 | 0.12 | 0.12 | 83 | 961.8 |
| 20260503080330 | 56 | 45 | 2.0 | 3.0 | 0.01 | 0.12 | 0.12 | 96 | 962.3 |
| 20260503070330 | 55 | 68 | 0.0 | 0.0 | 0.08 | 0.11 | 0.11 | 99 | 962.4 |
| 20260503060330 | 56 | 45 | 0.0 | 1.0 | 0.01 | 0.02 | 0.02 | 97 | 962.1 |
| 20260503053329 | 55 | 279 | 0.0 | 1.0 | 0.02 | 0.02 | 0.02 | 96 | 961.9 |
| 20260503050329 | 55 | 84 | 5.0 | 8.0 | 0.01 | 0.01 | 0.01 | 89 | 961.4 |
| 20260503043331 | 58 | 225 | 1.0 | 1.0 | 0.00 | 0.00 | 0.00 | 63 | 961.7 |
| 20260503040330 | 57 | 135 | 0.0 | 0.0 | 0.00 | 0.00 | 0.00 | 60 | 961.8 |
| 20260503030329 | 57 | 112 | 0.0 | 1.0 | 0.00 | 0.00 | 0.00 | 59 | 961.8 |
| 20260503023330 | 57 | 90 | 0.0 | 0.0 | 0.00 | 0.00 | 0.00 | 60 | 962.0 |
| 20260503020330 | 57 | 112 | 0.0 | 0.0 | 0.00 | 0.00 | 0.00 | 63 | 961.9 |
| 20260503013330 | 57 | 248 | 0.0 | 1.0 | 0.00 | 0.00 | 0.00 | 66 | 962.1 |
| 20260503010330 | 58 | 323 | 1.0 | 1.0 | 0.00 | 0.00 | 0.00 | 65 | 962.2 |
| 20260503003329 | 58 | 90 | 0.0 | 1.0 | 0.00 | 0.00 | 0.00 | 63 | 962.2 |